Location: Pedholt
(56.0260°N, 10.2097°E)
Time: 21:24:05
(UTC+00:00)

Tiros 1 - Pass Details

Date: 10 August 2021
Orbit: 630 x 663 km, 48.4° (Epoch: 19 September)

Event Time Altitude Azimuth Distance (km) Brightness Sun altitude
Rises 13:29:19 0° 197° (SSW) 2,986 11.2 42.9°
Reaches altitude 10° 13:33:01 10° 168° (SSE) 2,077 10.3 42.6°
Maximum altitude 13:34:58 12° 144° (SE) 1,918 9.8 42.4°
Drops below altitude 10° 13:36:55 10° 120° (ESE) 2,078 9.7 42.2°
Sets 13:40:36 0° 91° (E) 2,989 10.2 41.8°
